Location: Asheville, NC
(35.6000°N, 82.5500°W)
Time: 23:05:37
(UTC-04:00)

Hubble Space Telescope - Visible Passes

Search period start: 20 October 2017 00:00
Search period end: 30 October 2017 00:00
Orbit: 537 x 541 km, 28.5° (Epoch: 20 October)

Date Brightness Start Highest point End Pass type
(mag) Time Alt. Az. Time Alt. Az. Time Alt. Az.
20 Oct 2.6 20:26:40 10° SSW 20:29:13 19° S 20:29:13 19° S visible
21 Oct 2.3 20:16:09 10° SW 20:19:20 22° SSE 20:19:41 21° SSE visible
22 Oct 2.2 20:05:43 10° SW 20:09:05 24° S 20:10:06 22° SE visible
23 Oct 2.2 19:55:21 10° SW 19:58:49 26° S 20:00:30 20° SE visible
24 Oct 2.1 19:45:01 10° SW 19:48:34 28° S 19:50:53 17° SE visible
24 Oct 3.8 21:25:50 10° WSW 21:26:15 12° WSW 21:26:15 12° WSW visible
25 Oct 2.1 19:34:42 10° WSW 19:38:19 29° S 19:41:16 14° ESE visible
25 Oct 3.5 21:15:41 10° WSW 21:16:38 15° WSW 21:16:38 15° WSW visible
26 Oct 2.2 19:24:26 10° WSW 19:28:04 30° S 19:31:41 10° ESE visible
26 Oct 3.2 21:05:33 10° WSW 21:07:03 17° SW 21:07:03 17° SW visible
27 Oct 2.2 19:14:12 10° WSW 19:17:49 30° S 19:21:27 10° ESE visible
27 Oct 3.0 20:55:29 10° WSW 20:57:29 18° SW 20:57:29 18° SW visible
28 Oct 2.3 19:03:58 10° WSW 19:07:35 29° S 19:11:10 10° ESE visible
28 Oct 3.0 20:45:29 10° WSW 20:47:59 17° SSW 20:47:59 17° SSW visible
29 Oct 3.1 20:35:36 10° SW 20:37:59 15° SSW 20:38:33 15° S visible
